| time (UTC) | temp C | wind direction | speed KPH | gust KPH | rain 1hr cm | rain 24hr cm | rain mn cm | humidity % | barometer mb |
| 20260506164030 | 10 | 0.0 | 3.2 | 0.23 | 0.91 | 0.86 | 91 | 1009.1 | |
| 20260506163030 | 10 | 232 | 0.0 | 3.2 | 0.23 | 0.89 | 0.84 | 91 | 1009.0 |
| 20260506162030 | 10 | 48 | 0.0 | 1.6 | 0.23 | 0.86 | 0.81 | 93 | 1009.0 |
| 20260506161030 | 10 | 48 | 0.0 | 3.2 | 0.15 | 0.79 | 0.74 | 92 | 1009.0 |
| 20260506160031 | 10 | 28 | 0.0 | 3.2 | 0.15 | 0.76 | 0.71 | 92 | 1009.0 |
| 20260506155031 | 10 | 30 | 1.6 | 3.2 | 0.10 | 0.71 | 0.66 | 92 | 1008.9 |
| 20260506154031 | 10 | 0.0 | 0.0 | 0.08 | 0.69 | 0.64 | 91 | 1008.8 | |
| 20260506153030 | 10 | 28 | 0.0 | 1.6 | 0.08 | 0.66 | 0.61 | 89 | 1008.7 |
| 20260506152030 | 10 | 28 | 1.6 | 3.2 | 0.05 | 0.64 | 0.58 | 89 | 1008.7 |
| 20260506151030 | 10 | 41 | 0.0 | 1.6 | 0.08 | 0.64 | 0.58 | 88 | 1008.7 |
| 20260506150031 | 10 | 53 | 0.0 | 3.2 | 0.10 | 0.64 | 0.56 | 89 | 1008.6 |
| 20260506145031 | 10 | 29 | 1.6 | 6.4 | 0.13 | 0.69 | 0.56 | 88 | 1008.6 |
| 20260506144031 | 10 | 35 | 0.0 | 3.2 | 0.15 | 0.81 | 0.56 | 88 | 1008.6 |
| 20260506143031 | 11 | 36 | 0.0 | 6.4 | 0.15 | 0.81 | 0.53 | 86 | 1008.5 |
| 20260506142030 | 11 | 21 | 1.6 | 6.4 | 0.20 | 0.81 | 0.53 | 86 | 1008.8 |
| 20260506141030 | 11 | 176 | 3.2 | 4.8 | 0.20 | 0.76 | 0.48 | 87 | 1008.6 |
| 20260506140030 | 11 | 169 | 1.6 | 6.4 | 0.23 | 0.74 | 0.46 | 86 | 1008.4 |
| 20260506135030 | 11 | 166 | 1.6 | 6.4 | 0.23 | 0.71 | 0.43 | 88 | 1008.4 |
| 20260506134030 | 11 | 0.0 | 1.6 | 0.23 | 0.69 | 0.41 | 89 | 1008.4 | |
| 20260506133030 | 11 | 197 | 1.6 | 6.4 | 0.18 | 0.64 | 0.36 | 88 | 1008.4 |
| 20260506132030 | 11 | 169 | 3.2 | 9.7 | 0.15 | 0.61 | 0.33 | 88 | 1008.4 |
| 20260506131030 | 11 | 207 | 3.2 | 11.3 | 0.10 | 0.53 | 0.25 | 88 | 1008.1 |
| 20260506130031 | 12 | 168 | 1.6 | 3.2 | 0.10 | 0.51 | 0.23 | 88 | 1008.0 |
| 20260506125031 | 12 | 253 | 0.0 | 3.2 | 0.10 | 0.48 | 0.20 | 87 | 1007.8 |
| 20260506124030 | 12 | 180 | 1.6 | 4.8 | 0.10 | 0.46 | 0.18 | 88 | 1007.7 |
| 20260506123030 | 12 | 178 | 1.6 | 9.7 | 0.13 | 0.46 | 0.18 | 88 | 1007.7 |
| 20260506122030 | 12 | 192 | 3.2 | 6.4 | 0.13 | 0.46 | 0.18 | 87 | 1007.5 |
| 20260506121030 | 12 | 185 | 3.2 | 6.4 | 0.13 | 0.43 | 0.15 | 85 | 1007.3 |
| 20260506120031 | 12 | 98 | 0.0 | 1.6 | 0.10 | 0.41 | 0.13 | 89 | 1007.3 |
| 20260506115030 | 12 | 359 | 0.0 | 1.6 | 0.08 | 0.38 | 0.10 | 89 | 1007.2 |
| 20260506114031 | 12 | 224 | 0.0 | 1.6 | 0.08 | 0.36 | 0.08 | 88 | 1007.2 |
| 20260506113030 | 12 | 0.0 | 3.2 | 0.05 | 0.33 | 0.05 | 86 | 1007.0 | |
| 20260506112031 | 13 | 0.0 | 0.0 | 0.05 | 0.33 | 0.05 | 82 | 1007.1 | |
| 20260506111030 | 13 | 196 | 1.6 | 3.2 | 0.03 | 0.30 | 0.03 | 79 | 1007.1 |
| 20260506110030 | 13 | 213 | 1.6 | 4.8 | 0.03 | 0.30 | 0.03 | 78 | 1007.1 |
| 20260506105030 | 13 | 183 | 1.6 | 4.8 | 0.03 | 0.30 | 0.03 | 76 | 1007.1 |
| 20260506104030 | 13 | 172 | 1.6 | 4.8 | 0.00 | 0.28 | 0.00 | 75 | 1007.0 |
| 20260506103030 | 13 | 192 | 1.6 | 4.8 | 0.00 | 0.28 | 0.00 | 76 | 1007.0 |
| 20260506102030 | 13 | 189 | 0.0 | 4.8 | 0.00 | 0.28 | 0.00 | 76 | 1007.0 |
| 20260506101030 | 14 | 200 | 3.2 | 4.8 | 0.00 | 0.28 | 0.00 | 75 | 1007.0 |
| 20260506100031 | 14 | 41 | 1.6 | 6.4 | 0.00 | 0.28 | 0.00 | 75 | 1006.9 |
| 20260506095030 | 14 | 79 | 1.6 | 3.2 | 0.00 | 0.28 | 0.00 | 76 | 1006.8 |
| 20260506094030 | 14 | 204 | 0.0 | 4.8 | 0.00 | 0.28 | 0.00 | 77 | 1006.9 |
| 20260506093030 | 14 | 105 | 0.0 | 3.2 | 0.00 | 0.28 | 0.00 | 76 | 1006.9 |
| 20260506092030 | 15 | 46 | 1.6 | 6.4 | 0.00 | 0.28 | 0.00 | 75 | 1006.8 |
| 20260506091030 | 14 | 185 | 3.2 | 6.4 | 0.00 | 0.28 | 0.00 | 75 | 1006.7 |
| 20260506090031 | 15 | 207 | 1.6 | 9.7 | 0.00 | 0.28 | 0.00 | 75 | 1006.6 |
| 20260506085030 | 15 | 175 | 3.2 | 9.7 | 0.00 | 0.28 | 0.00 | 75 | 1006.5 |
| 20260506084030 | 15 | 190 | 3.2 | 4.8 | 0.00 | 0.28 | 0.00 | 76 | 1006.4 |
| 20260506083030 | 14 | 197 | 1.6 | 4.8 | 0.00 | 0.28 | 0.00 | 74 | 1006.4 |
| 20260506082030 | 14 | 221 | 1.6 | 4.8 | 0.00 | 0.28 | 0.00 | 74 | 1006.4 |
| 20260506081030 | 14 | 215 | 1.6 | 1.6 | 0.00 | 0.28 | 0.00 | 75 | 1006.5 |
| 20260506073030 | 12 | 0.0 | 1.6 | 0.00 | 0.28 | 0.00 | 89 | 1006.7 | |
| 20260506072029 | 12 | 191 | 0.0 | 1.6 | 0.00 | 0.28 | 0.00 | 90 | 1006.7 |
| 20260506071029 | 11 | 208 | 0.0 | 1.6 | 0.00 | 0.28 | 0.00 | 91 | 1006.7 |
| 20260506062030 | 10 | 50 | 1.6 | 1.6 | 0.00 | 0.28 | 0.00 | 97 | 1006.7 |
| 20260506061030 | 10 | 0.0 | 3.2 | 0.00 | 0.28 | 0.00 | 97 | 1006.7 | |
| 20260506051030 | 8 | 29 | 1.6 | 3.2 | 0.00 | 0.28 | 0.00 | 97 | 1007.0 |
| 20260506045031 | 8 | 36 | 1.6 | 3.2 | 0.00 | 0.28 | 0.00 | 97 | 1007.1 |
| 20260506044031 | 8 | 37 | 1.6 | 4.8 | 0.00 | 0.28 | 0.00 | 97 | 1007.0 |
| 20260506043031 | 8 | 35 | 1.6 | 4.8 | 0.00 | 0.28 | 0.00 | 97 | 1007.0 |
| 20260506042030 | 8 | 0.0 | 0.0 | 0.00 | 0.28 | 0.00 | 97 | 1007.1 | |
| 20260506041031 | 9 | 0.0 | 1.6 | 0.00 | 0.28 | 0.00 | 97 | 1007.3 | |
| 20260506040030 | 9 | 39 | 0.0 | 1.6 | 0.00 | 0.28 | 0.00 | 97 | 1007.3 |
| 20260506035030 | 9 | 0.0 | 0.0 | 0.00 | 0.28 | 0.00 | 98 | 1007.3 | |
| 20260506034030 | 9 | 36 | 0.0 | 3.2 | 0.00 | 0.28 | 0.00 | 97 | 1007.3 |
| 20260506033030 | 9 | 39 | 1.6 | 3.2 | 0.00 | 0.28 | 0.00 | 97 | 1007.4 |
| 20260506032030 | 10 | 36 | 1.6 | 3.2 | 0.00 | 0.28 | 0.00 | 97 | 1007.4 |
| 20260506031030 | 10 | 27 | 1.6 | 3.2 | 0.00 | 0.28 | 0.00 | 98 | 1007.6 |
| 20260506030031 | 10 | 0.0 | 0.0 | 0.00 | 0.28 | 0.00 | 98 | 1007.7 | |
| 20260506025031 | 10 | 34 | 1.6 | 3.2 | 0.00 | 0.28 | 0.00 | 98 | 1007.8 |
| 20260506024030 | 10 | 0.0 | 0.0 | 0.00 | 0.28 | 0.00 | 98 | 1008.0 | |
| 20260506021030 | 9 | 34 | 0.0 | 3.2 | 0.00 | 0.28 | 0.00 | 98 | 1008.1 |
| 20260506020031 | 9 | 0.0 | 1.6 | 0.00 | 0.28 | 0.00 | 98 | 1008.2 | |
| 20260506015030 | 8 | 42 | 0.0 | 3.2 | 0.00 | 0.28 | 0.00 | 98 | 1008.5 |
| 20260506014031 | 8 | 42 | 0.0 | 1.6 | 0.00 | 0.28 | 0.00 | 98 | 1008.4 |
| 20260506013030 | 8 | 0.0 | 1.6 | 0.00 | 0.28 | 0.00 | 98 | 1008.5 | |
| 20260506012030 | 8 | 36 | 1.6 | 3.2 | 0.00 | 0.28 | 0.00 | 98 | 1008.8 |
| 20260506011030 | 8 | 35 | 0.0 | 3.2 | 0.00 | 0.28 | 0.00 | 98 | 1008.7 |
| 20260506010031 | 8 | 34 | 0.0 | 3.2 | 0.00 | 0.28 | 0.00 | 98 | 1008.6 |
| 20260506005030 | 8 | 31 | 1.6 | 4.8 | 0.00 | 0.28 | 0.00 | 98 | 1008.5 |
| 20260506004030 | 8 | 26 | 0.0 | 3.2 | 0.00 | 0.28 | 0.00 | 98 | 1008.6 |
| 20260506003030 | 8 | 32 | 1.6 | 3.2 | 0.00 | 0.28 | 0.00 | 98 | 1008.8 |
| 20260506002030 | 8 | 0.0 | 1.6 | 0.00 | 0.28 | 0.00 | 98 | 1008.9 | |
| 20260506001029 | 8 | 53 | 0.0 | 1.6 | 0.00 | 0.28 | 0.00 | 98 | 1009.0 |
| 20260506000030 | 8 | 32 | 0.0 | 3.2 | 0.00 | 0.28 | 0.00 | 98 | 1009.1 |
| 20260505235030 | 8 | 39 | 1.6 | 4.8 | 0.00 | 0.28 | 0.00 | 98 | 1009.1 |
| 20260505234030 | 8 | 34 | 0.0 | 3.2 | 0.00 | 0.28 | 0.00 | 98 | 1009.2 |
| 20260505233030 | 7 | 41 | 0.0 | 1.6 | 0.00 | 0.28 | 0.00 | 98 | 1009.3 |
| 20260505232030 | 8 | 36 | 0.0 | 3.2 | 0.00 | 0.28 | 0.00 | 98 | 1009.3 |
| 20260505231030 | 8 | 42 | 0.0 | 3.2 | 0.00 | 0.28 | 0.00 | 98 | 1009.3 |
| 20260505230031 | 8 | 40 | 0.0 | 3.2 | 0.00 | 0.28 | 0.00 | 98 | 1009.4 |
| 20260505225031 | 8 | 38 | 1.6 | 3.2 | 0.00 | 0.28 | 0.00 | 98 | 1009.5 |
| 20260505224030 | 8 | 37 | 1.6 | 4.8 | 0.00 | 0.28 | 0.00 | 98 | 1009.5 |
| 20260505223031 | 8 | 40 | 0.0 | 3.2 | 0.00 | 0.28 | 0.00 | 97 | 1009.5 |
| 20260505222031 | 8 | 46 | 0.0 | 1.6 | 0.00 | 0.28 | 0.00 | 97 | 1009.5 |
| 20260505221030 | 8 | 40 | 0.0 | 3.2 | 0.00 | 0.28 | 0.00 | 97 | 1009.6 |
| 20260505220030 | 8 | 34 | 1.6 | 3.2 | 0.00 | 0.28 | 0.28 | 97 | 1009.5 |
| 20260505215030 | 9 | 37 | 1.6 | 4.8 | 0.00 | 0.28 | 0.28 | 97 | 1009.5 |
| 20260505214030 | 8 | 39 | 1.6 | 3.2 | 0.00 | 0.28 | 0.28 | 97 | 1009.7 |
| 20260505213030 | 9 | 37 | 1.6 | 3.2 | 0.00 | 0.28 | 0.28 | 97 | 1009.5 |
| 20260505212029 | 9 | 35 | 1.6 | 3.2 | 0.00 | 0.28 | 0.28 | 96 | 1009.6 |
| 20260505211029 | 10 | 43 | 0.0 | 3.2 | 0.00 | 0.28 | 0.28 | 97 | 1009.6 |
| 20260505210030 | 10 | 43 | 0.0 | 3.2 | 0.00 | 0.28 | 0.28 | 97 | 1009.6 |
| 20260505205030 | 10 | 40 | 1.6 | 3.2 | 0.00 | 0.28 | 0.28 | 96 | 1009.7 |
| 20260505204031 | 11 | 0.0 | 1.6 | 0.00 | 0.28 | 0.28 | 97 | 1009.7 | |
| 20260505203030 | 11 | 29 | 1.6 | 3.2 | 0.00 | 0.28 | 0.28 | 97 | 1009.6 |
| 20260505202030 | 10 | 24 | 0.0 | 1.6 | 0.00 | 0.28 | 0.28 | 97 | 1009.5 |
| 20260505201030 | 10 | 33 | 0.0 | 1.6 | 0.00 | 0.28 | 0.28 | 96 | 1009.3 |
| 20260505200030 | 10 | 35 | 1.6 | 3.2 | 0.00 | 0.28 | 0.28 | 96 | 1009.2 |
| 20260505195030 | 11 | 37 | 1.6 | 3.2 | 0.00 | 0.28 | 0.28 | 96 | 1009.1 |
| 20260505194030 | 11 | 23 | 0.0 | 1.6 | 0.00 | 0.28 | 0.28 | 95 | 1009.0 |
| 20260505193030 | 11 | 27 | 1.6 | 3.2 | 0.00 | 0.28 | 0.28 | 95 | 1009.1 |
| 20260505192030 | 11 | 37 | 0.0 | 1.6 | 0.05 | 0.28 | 0.28 | 95 | 1009.0 |
| 20260505191030 | 12 | 28 | 0.0 | 3.2 | 0.05 | 0.28 | 0.28 | 95 | 1008.9 |
| 20260505190031 | 12 | 39 | 1.6 | 4.8 | 0.05 | 0.28 | 0.28 | 94 | 1008.9 |
| 20260505185031 | 12 | 0.0 | 0.0 | 0.05 | 0.28 | 0.28 | 93 | 1008.7 | |
| 20260505184031 | 12 | 38 | 0.0 | 3.2 | 0.05 | 0.28 | 0.28 | 92 | 1008.7 |
| 20260505183031 | 13 | 57 | 0.0 | 3.2 | 0.05 | 0.28 | 0.28 | 91 | 1008.8 |
| 20260505182030 | 13 | 22 | 0.0 | 4.8 | 0.00 | 0.23 | 0.23 | 91 | 1008.8 |
| 20260505181031 | 13 | 0.0 | 0.0 | 0.00 | 0.23 | 0.23 | 91 | 1008.7 | |
| 20260505180030 | 13 | 30 | 0.0 | 3.2 | 0.00 | 0.23 | 0.23 | 91 | 1008.4 |
| 20260505175030 | 13 | 31 | 3.2 | 6.4 | 0.00 | 0.25 | 0.23 | 90 | 1008.5 |
| 20260505174030 | 13 | 40 | 0.0 | 3.2 | 0.00 | 0.25 | 0.23 | 90 | 1008.3 |
| 20260505173030 | 13 | 13 | 1.6 | 4.8 | 0.00 | 0.25 | 0.23 | 90 | 1008.4 |
| 20260505172030 | 14 | 33 | 1.6 | 4.8 | 0.00 | 0.28 | 0.23 | 90 | 1008.3 |
| 20260505171030 | 14 | 30 | 3.2 | 6.4 | 0.00 | 0.28 | 0.23 | 90 | 1008.2 |
| 20260505170030 | 14 | 0.0 | 1.6 | 0.00 | 0.28 | 0.23 | 90 | 1008.4 | |
| 20260505165030 | 13 | 25 | 1.6 | 4.8 | 0.00 | 0.28 | 0.23 | 88 | 1008.3 |